ANO331 YPKU-YPDN

Flight info

Callsign ANO331
Flight time 0h 40m
Altitude 35000
Route KU J72 WANGI
Aircraft E170/M-S/L

Departure

Time 2026-05-06 08:08
Airport East Kimberley Regional (Kununurra) Airport (YPKU)

Arrival

Time 2026-05-06 08:49
Airport Darwin International Airport / RAAF Darwin (YPDN)
Time Latitude Longitude Altitude Speed Heading
2026-05-06 07:43 -15.78336 128.71257 150 ft 0 kts 224°
2026-05-06 08:03 -15.78339 128.71251 150 ft 1 kts 256°
2026-05-06 08:03 -15.78336 128.71245 150 ft 1 kts 319°
2026-05-06 08:03 -15.78326 128.71245 150 ft 3 kts 27°
2026-05-06 08:03 -15.78296 128.71252 150 ft 4 kts 325°
2026-05-06 08:04 -15.78284 128.71217 150 ft 7 kts 300°
2026-05-06 08:04 -15.78226 128.71198 150 ft 11 kts
2026-05-06 08:04 -15.78151 128.71202 150 ft 10 kts
2026-05-06 08:04 -15.78074 128.71205 150 ft 11 kts
2026-05-06 08:05 -15.77999 128.71209 150 ft 7 kts
2026-05-06 08:05 -15.77947 128.71190 151 ft 10 kts 306°
2026-05-06 08:05 -15.77902 128.71111 150 ft 16 kts 300°
2026-05-06 08:05 -15.77839 128.70995 150 ft 21 kts 300°
2026-05-06 08:06 -15.77758 128.70849 150 ft 26 kts 299°
2026-05-06 08:06 -15.77660 128.70670 149 ft 30 kts 300°
2026-05-06 08:06 -15.77570 128.70508 147 ft 22 kts 300°
2026-05-06 08:06 -15.77495 128.70371 146 ft 20 kts 300°
2026-05-06 08:07 -15.77444 128.70268 146 ft 14 kts 291°
2026-05-06 08:07 -15.77416 128.70202 146 ft 4 kts 320°
2026-05-06 08:07 -15.77404 128.70206 146 ft 1 kts 85°
2026-05-06 08:07 -15.77411 128.70220 146 ft 0 kts 120°
2026-05-06 08:08 -15.77412 128.70223 146 ft 6 kts 120°
2026-05-06 08:08 -15.77604 128.70568 148 ft 105 kts 119°
2026-05-06 08:08 -15.78093 128.71472 509 ft 162 kts 121°
2026-05-06 08:08 -15.78636 128.72538 1829 ft 171 kts 117°
2026-05-06 08:09 -15.79165 128.73656 3286 ft 175 kts 115°
2026-05-06 08:09 -15.79674 128.74829 3993 ft 190 kts 114°
2026-05-06 08:09 -15.80261 128.76119 4915 ft 201 kts 117°
2026-05-06 08:09 -15.80865 128.77455 6111 ft 214 kts 104°
2026-05-06 08:10 -15.80747 128.79057 6982 ft 239 kts 69°
2026-05-06 08:10 -15.79668 128.80467 7736 ft 262 kts 43°
2026-05-06 08:10 -15.78094 128.81541 8531 ft 279 kts 31°
2026-05-06 08:10 -15.76384 128.82599 9286 ft 293 kts 33°
2026-05-06 08:11 -15.74602 128.83710 10019 ft 303 kts 31°
2026-05-06 08:11 -15.72742 128.84854 10603 ft 318 kts 31°
2026-05-06 08:11 -15.70796 128.86051 11191 ft 331 kts 30°
2026-05-06 08:11 -15.68801 128.87282 12028 ft 335 kts 30°
2026-05-06 08:12 -15.66783 128.88525 12948 ft 338 kts 28°
2026-05-06 08:12 -15.64659 128.89564 13882 ft 338 kts 12°
2026-05-06 08:12 -15.62356 128.90062 14752 ft 341 kts
2026-05-06 08:12 -15.60009 128.90557 15636 ft 347 kts 12°
2026-05-06 08:13 -15.57817 128.91595 16450 ft 356 kts 27°
2026-05-06 08:13 -15.55688 128.92960 17256 ft 362 kts 29°
2026-05-06 08:13 -15.53523 128.94338 18025 ft 368 kts 28°
2026-05-06 08:13 -15.51315 128.95725 18716 ft 373 kts 28°
2026-05-06 08:14 -15.49081 128.97127 19394 ft 377 kts 27°
2026-05-06 08:14 -15.46823 128.98542 20079 ft 381 kts 27°
2026-05-06 08:14 -15.44541 128.99973 20766 ft 385 kts 26°
2026-05-06 08:14 -15.42231 129.01420 21449 ft 389 kts 26°
2026-05-06 08:15 -15.39897 129.02883 22101 ft 394 kts 26°
2026-05-06 08:15 -15.37544 129.04358 22756 ft 398 kts 26°
2026-05-06 08:15 -15.35163 129.05849 23391 ft 402 kts 26°
2026-05-06 08:15 -15.32755 129.07357 23934 ft 406 kts 25°
2026-05-06 08:16 -15.30329 129.08876 24443 ft 409 kts 25°
2026-05-06 08:16 -15.27877 129.10410 24938 ft 413 kts 25°
2026-05-06 08:16 -15.25405 129.11957 25435 ft 417 kts 25°
2026-05-06 08:16 -15.22911 129.13517 25914 ft 421 kts 25°
2026-05-06 08:17 -15.20387 129.15095 26387 ft 424 kts 25°
2026-05-06 08:17 -15.17850 129.16681 26839 ft 428 kts 25°
2026-05-06 08:17 -15.15293 129.18280 27288 ft 432 kts 25°
2026-05-06 08:17 -15.12743 129.19873 27717 ft 435 kts 25°
2026-05-06 08:18 -15.10138 129.21500 28135 ft 439 kts 24°
2026-05-06 08:18 -15.07521 129.23135 28542 ft 442 kts 24°
2026-05-06 08:18 -15.04870 129.24790 28944 ft 445 kts 24°
2026-05-06 08:18 -15.02204 129.26454 29294 ft 449 kts 24°
2026-05-06 08:19 -14.99527 129.28125 29640 ft 452 kts 24°
2026-05-06 08:19 -14.96823 129.29810 29856 ft 458 kts 24°
2026-05-06 08:19 -14.94069 129.31527 30043 ft 463 kts 24°
2026-05-06 08:19 -14.91310 129.33248 30371 ft 463 kts 24°
2026-05-06 08:20 -14.88547 129.34970 30709 ft 464 kts 24°
2026-05-06 08:20 -14.85781 129.36693 31033 ft 464 kts 24°
2026-05-06 08:20 -14.83011 129.38417 31363 ft 465 kts 25°
2026-05-06 08:20 -14.80240 129.40143 31691 ft 465 kts 25°
2026-05-06 08:21 -14.77501 129.41848 32020 ft 465 kts 25°
2026-05-06 08:21 -14.74727 129.43575 32339 ft 466 kts 25°
2026-05-06 08:21 -14.71947 129.45304 32666 ft 466 kts 25°
2026-05-06 08:21 -14.69161 129.47036 33002 ft 466 kts 25°
2026-05-06 08:22 -14.66379 129.48766 33321 ft 467 kts 25°
2026-05-06 08:22 -14.63596 129.50495 33638 ft 467 kts 25°
2026-05-06 08:22 -14.60810 129.52226 33940 ft 467 kts 25°
2026-05-06 08:22 -14.58016 129.53961 34209 ft 467 kts 25°
2026-05-06 08:23 -14.55238 129.55687 34497 ft 467 kts 25°
2026-05-06 08:23 -14.52482 129.57397 34748 ft 466 kts 25°
2026-05-06 08:23 -14.46987 129.60805 34879 ft 464 kts 25°
2026-05-06 08:24 -14.42349 129.63682 34917 ft 470 kts 25°
2026-05-06 08:24 -14.36743 129.67158 34909 ft 469 kts 25°
2026-05-06 08:25 -14.31150 129.70623 34914 ft 469 kts 25°
2026-05-06 08:25 -14.25556 129.74086 34906 ft 468 kts 25°
2026-05-06 08:26 -14.19968 129.77543 34911 ft 468 kts 25°
2026-05-06 08:26 -14.14381 129.80998 34907 ft 468 kts 25°
2026-05-06 08:27 -14.08797 129.84449 34909 ft 468 kts 25°
2026-05-06 08:27 -14.03205 129.87903 34911 ft 468 kts 25°
2026-05-06 08:28 -13.97624 129.91347 34907 ft 468 kts 25°
2026-05-06 08:28 -13.92045 129.94790 34905 ft 467 kts 25°
2026-05-06 08:29 -13.86502 129.98208 34907 ft 467 kts 25°
2026-05-06 08:29 -13.80930 130.01641 34906 ft 467 kts 25°
2026-05-06 08:30 -13.75355 130.05074 34912 ft 467 kts 25°
2026-05-06 08:30 -13.69785 130.08503 34905 ft 467 kts 25°
2026-05-06 08:31 -13.64216 130.11929 34910 ft 466 kts 25°
2026-05-06 08:31 -13.58648 130.15353 34902 ft 466 kts 25°
2026-05-06 08:32 -13.53115 130.18841 34908 ft 468 kts 27°
2026-05-06 08:32 -13.50358 130.20629 34540 ft 466 kts 27°
2026-05-06 08:32 -13.47611 130.22418 34041 ft 467 kts 27°
2026-05-06 08:33 -13.44879 130.24197 33492 ft 466 kts 27°
2026-05-06 08:33 -13.42141 130.25978 32923 ft 465 kts 27°
2026-05-06 08:33 -13.39410 130.27756 32358 ft 463 kts 27°
2026-05-06 08:33 -13.36692 130.29523 31815 ft 463 kts 27°
2026-05-06 08:34 -13.34004 130.31271 31242 ft 462 kts 27°
2026-05-06 08:34 -13.28583 130.34795 30115 ft 460 kts 27°
2026-05-06 08:34 -13.25873 130.36555 29493 ft 459 kts 27°
2026-05-06 08:35 -13.23181 130.38304 28840 ft 456 kts 28°
2026-05-06 08:35 -13.20511 130.40038 28201 ft 450 kts 28°
2026-05-06 08:35 -13.17883 130.41744 27583 ft 445 kts 28°
2026-05-06 08:35 -13.15285 130.43431 26966 ft 439 kts 28°
2026-05-06 08:36 -13.12711 130.45099 26369 ft 435 kts 28°
2026-05-06 08:36 -13.10169 130.46748 25786 ft 430 kts 28°
2026-05-06 08:36 -13.07653 130.48379 25212 ft 426 kts 28°
2026-05-06 08:36 -13.05163 130.49993 24654 ft 421 kts 29°
2026-05-06 08:37 -13.02731 130.51569 24116 ft 417 kts 29°
2026-05-06 08:37 -13.00294 130.53147 23528 ft 414 kts 29°
2026-05-06 08:37 -12.97874 130.54715 22817 ft 409 kts 29°
2026-05-06 08:37 -12.95480 130.56266 22105 ft 405 kts 30°
2026-05-06 08:38 -12.93110 130.57801 21411 ft 401 kts 30°
2026-05-06 08:38 -12.90763 130.59319 20736 ft 397 kts 30°
2026-05-06 08:38 -12.88433 130.60828 20080 ft 394 kts 30°
2026-05-06 08:38 -12.86122 130.62321 19427 ft 391 kts 30°
2026-05-06 08:39 -12.83832 130.63804 18797 ft 389 kts 30°
2026-05-06 08:39 -12.81566 130.65270 18167 ft 381 kts 30°
2026-05-06 08:39 -12.79323 130.66719 17421 ft 380 kts 30°
2026-05-06 08:39 -12.77100 130.68157 16670 ft 372 kts 30°
2026-05-06 08:40 -12.74997 130.69519 15916 ft 345 kts 30°
2026-05-06 08:40 -12.73027 130.70791 15174 ft 325 kts 30°
2026-05-06 08:40 -12.71159 130.71997 14452 ft 310 kts 30°
2026-05-06 08:40 -12.69368 130.73154 13752 ft 300 kts 30°
2026-05-06 08:41 -12.67633 130.74275 12974 ft 290 kts 30°
2026-05-06 08:41 -12.65943 130.75357 12210 ft 283 kts 28°
2026-05-06 08:41 -12.64119 130.76036 11476 ft 279 kts
2026-05-06 08:41 -12.62216 130.76209 10769 ft 271 kts 359°
2026-05-06 08:42 -12.60373 130.76102 10082 ft 267 kts 351°
2026-05-06 08:42 -12.58539 130.75737 9341 ft 264 kts 350°
2026-05-06 08:42 -12.56768 130.75338 8604 ft 263 kts 347°
2026-05-06 08:42 -12.54999 130.74877 7875 ft 262 kts 348°
2026-05-06 08:43 -12.53224 130.74447 7159 ft 261 kts 349°
2026-05-06 08:43 -12.51458 130.74026 6466 ft 260 kts 350°
2026-05-06 08:43 -12.49693 130.73607 5738 ft 260 kts 350°
2026-05-06 08:43 -12.47930 130.73191 5028 ft 259 kts 349°
2026-05-06 08:44 -12.46199 130.72773 4816 ft 246 kts 349°
2026-05-06 08:44 -12.44591 130.72405 4512 ft 233 kts 353°
2026-05-06 08:44 -12.42996 130.72282 4035 ft 226 kts
2026-05-06 08:44 -12.41475 130.72442 3651 ft 211 kts 16°
2026-05-06 08:45 -12.40136 130.72821 3265 ft 189 kts 26°
2026-05-06 08:45 -12.39196 130.73622 2845 ft 171 kts 57°
2026-05-06 08:45 -12.38619 130.74650 2428 ft 164 kts 72°
2026-05-06 08:45 -12.38286 130.75731 2101 ft 151 kts 81°
2026-05-06 08:46 -12.38072 130.76730 2013 ft 138 kts 84°
2026-05-06 08:46 -12.38120 130.77684 1901 ft 134 kts 103°
2026-05-06 08:46 -12.38332 130.78597 1811 ft 134 kts 109°
2026-05-06 08:46 -12.38594 130.79464 1635 ft 123 kts 110°
2026-05-06 08:47 -12.38854 130.80268 1389 ft 115 kts 110°
2026-05-06 08:47 -12.39096 130.81008 1285 ft 107 kts 110°
2026-05-06 08:47 -12.39339 130.81740 1171 ft 110 kts 110°
2026-05-06 08:47 -12.39598 130.82493 1003 ft 113 kts 110°
2026-05-06 08:48 -12.39855 130.83243 885 ft 110 kts 110°
2026-05-06 08:48 -12.40092 130.83983 747 ft 110 kts 109°
2026-05-06 08:48 -12.40333 130.84728 568 ft 110 kts 110°
2026-05-06 08:48 -12.40587 130.85496 362 ft 117 kts 110°
2026-05-06 08:49 -12.40846 130.86268 202 ft 112 kts 110°
2026-05-06 08:49 -12.41087 130.86976 87 ft 93 kts 110°
2026-05-06 08:49 -12.41252 130.87456 90 ft 40 kts 109°
2026-05-06 08:49 -12.41327 130.87677 88 ft 32 kts 109°
2026-05-06 08:50 -12.41385 130.87852 88 ft 20 kts 109°
2026-05-06 08:50 -12.41407 130.87964 86 ft 13 kts 72°
2026-05-06 08:50 -12.41329 130.88020 88 ft 16 kts 19°
2026-05-06 08:50 -12.41216 130.88060 90 ft 17 kts 19°
2026-05-06 08:51 -12.41117 130.88094 88 ft 14 kts 15°
2026-05-06 08:51 -12.41047 130.88047 90 ft 15 kts 291°
2026-05-06 08:51 -12.41016 130.87958 88 ft 12 kts 288°
2026-05-06 08:51 -12.40995 130.87898 89 ft 7 kts 300°
2026-05-06 08:52 -12.40964 130.87892 89 ft 6 kts 21°
2026-05-06 08:52 -12.40937 130.87902 90 ft 2 kts 19°
2026-05-06 08:52 -12.40929 130.87905 89 ft 0 kts 19°